STARLINK-33858, 63885

Orbit data source: Space-Track

STARLINK-33858, 63885 is a payload satellite owned by SpaceX/Seattle (US) in LEO that was launched on Sat, 10 May 2025 UTC via an FALCON 9 launch vehicle from the Air Force Western Test Range (AFWTR). Payload-class satellites include a variety of spacecraft equipped with specific instruments for various scientific and technological missions. These include communications satellites like Starlink; space stations such as the ISS; scientific satellites like the Hubble; Earth observation satellites from companies like Planet Labs, Umbra, and HawkEye 360; GPS; miniature CubeSats for education and research; and military/defense satellites.

Loading next visibility...
Identifier
63885, 2025-094X
Orbit
LEO
Country
Flag of USUS
Related business
Manufacturer
SpaceX/Seattle
Mission
Operational Commercial Communications
Bus & Motor
STARLINK V2MO, Unknown motor
Mass
575 kg wet, ~530 kg dry
Launch date (UTC)
2025-05-10 (1 year ago)
Launch vehicle
FALCON 9
Launch site
Air Force Western Test Range (AFWTR)
Object type
Payload
Rocket body
Debris
Shape & HBR
Box + 2 Pan, 17.7 m
Radar Cross Section
36.964 m², Large (>1 m²)

Expand to show TLE details & history
Last TLE update: 1 day ago

TLE from 1 day ago
0 STARLINK-33858
1 63885U 25094X   26170.89803358 -.00179600  00000-0 -15691-1 0  9998
2 63885  70.0023 336.7267 0003464 221.0057 139.0842 14.97687847 62514
Epoch: 2026-06-19T21:33Z
TLE epoch observation values (Epoch: 2026-06-19T21:33:10.101Z)
Latitude
0.00001°
Longitude
105.31421°
Altitude
578.286 km
Speed
7.571 km/s
True Right ascension
22h 26m 54s
True Declination
0° 00' 00"
Sunlit
Object was in daylight at epoch
Visualization orbit readout
Latitude
Unknown
Longitude
Unknown
Altitude
Unknown
Speed
Unknown
Apparent Right ascension
Unknown
Apparent Declination
Unknown
Sunlit
N/A
Visualization observer readout
Local Sidereal Time
08:33:37
Azimuth
Unknown
Elevation
Unknown
Doppler factor
Unknown
Orbital elements
Apogee altitude
574.399 km
Perigee altitude
569.583 km
Semi-major axis
6,950.128 km
Eccentricity
0.00035
Inclination
70.0023°
RAAN
336.7267°
Arg. of periapsis
221.0057°
True anomaly
139.11019°
Mean anomaly
139.0842°
Eccentric anomaly
139.0972°
Mean motion
3.74588 °/min
Orbital period
96.11 mins
BSTAR
-0.015691
Loading maneuver chart data...
Computing Atmospheric mass density...
Loading historical data...
Loading historical data...
Loading historical data...
Loading historical data...
Loading historical data...
Loading historical data...
Loading historical data...

Documentation

Showing up to 5 results
|